Overview Statistics Trail Chart Weather Telemetry Raw packets
 

This is the latest recevied weather packets stored in our database for station/object DG0LHZ-10. If no packets are shown the sender has not sent any weather packets the latest 10 day(s).

<< 1 2 3 4 5 6 >>
Time Temp. Humidity Pressure Rain* Wind** Luminosity Snow
1788322408 15.56° C 55% 1022.7 hPa - - - -
1788321508 15.56° C 54% 1022.6 hPa - - - -
1788320608 16.11° C 53% 1022.5 hPa - - - -
1788319708 16.11° C 53% 1022.3 hPa - - - -
1788318808 16.11° C 53% 1022.2 hPa - - - -
1788317908 16.67° C 53% 1022.3 hPa - - - -
1788317008 16.67° C 53% 1022.4 hPa - - - -
1788316108 16.67° C 52% 1022.3 hPa - - - -
1788315208 16.67° C 52% 1022.2 hPa - - - -
1788314308 17.22° C 52% 1022.2 hPa - - - -
1788313408 17.22° C 52% 1022.4 hPa - - - -
1788312507 17.78° C 52% 1022.6 hPa - - - -
1788311607 17.78° C 51% 1022.6 hPa - - - -
1788310707 17.78° C 51% 1022.5 hPa - - - -
1788309807 18.33° C 51% 1022.5 hPa - - - -
1788308907 18.33° C 50% 1022.5 hPa - - - -
1788308007 18.33° C 50% 1022.3 hPa - - - -
1788307107 18.89° C 49% 1022.3 hPa - - - -
1788306221 18.89° C 49% 1022.3 hPa - - - -
1788305307 19.44° C 48% 1022.3 hPa - - - -
1788304407 19.44° C 48% 1022.4 hPa - - - -
1788303507 19.44° C 48% 1022.3 hPa - - - -
1788302607 20° C 47% 1022.3 hPa - - - -
1788301707 20° C 47% 1022.3 hPa - - - -
1788300807 20.56° C 46% 1022.2 hPa - - - -

* Rain since midnight (hover to see other rain measurements)
** Current wind speed in m/s (hover to see current wind gust speed)